STARLINK-5575, 55381

Orbit data source: Space-Track

STARLINK-5575, 55381 is a payload satellite owned by SpaceX/Seattle (US) in LEO that was launched on Thu, 26 Jan 2023 UTC via an FALCON 9 launch vehicle from the Air Force Eastern Test Range (AFETR). Payload-class satellites include a variety of spacecraft equipped with specific instruments for various scientific and technological missions. These include communications satellites like Starlink; space stations such as the ISS; scientific satellites like the Hubble; Earth observation satellites from companies like Planet Labs, Umbra, and HawkEye 360; GPS; miniature CubeSats for education and research; and military/defense satellites.

Loading next visibility...
Identifier
55381, 2023-013BC
Orbit
LEO
Country
Flag of USUS
Related business
Manufacturer
SpaceX/Seattle
Mission
Operational Commercial Communications
Bus & Motor
STARLINK, Unknown motor
Mass
305 kg wet, ~290 kg dry
Launch date (UTC)
2023-01-26 (3 years ago)
Launch vehicle
FALCON 9
Launch site
Air Force Eastern Test Range (AFETR)
Object type
Payload
Rocket body
Debris
Shape & HBR
Box + 1 Pan, 10.1 m
Radar Cross Section
13.562 m², Large (>1 m²)

Expand to show TLE details & history
Last TLE update: 1 day ago

TLE from 1 day ago
0 STARLINK-5575
1 55381U 23013BC  25348.59514630 -.00000601  00000-0 -29412-4 0  9997
2 55381  43.0031  55.2957 0000916 246.3413 113.7334 15.02528048158761
Epoch: 2025-12-14T14:17Z
TLE epoch observation values (Epoch: 2025-12-14T14:17:00.640Z)
Latitude
0.00004°
Longitude
117.53727°
Altitude
559.138 km
Speed
7.584 km/s
True Right ascension
03h 41m 10s
True Declination
0° 00' 00"
Sunlit
Object was in full shadow at epoch
Visualization orbit readout
Latitude
Unknown
Longitude
Unknown
Altitude
Unknown
Speed
Unknown
Apparent Right ascension
Unknown
Apparent Declination
Unknown
Sunlit
N/A
Visualization observer readout
Local Sidereal Time
15:08:55
Azimuth
Unknown
Elevation
Unknown
Doppler factor
Unknown
Orbital elements
Apogee altitude
561.663 km
Perigee altitude
560.392 km
Semi-major axis
6,939.164 km
Eccentricity
0.00009
Inclination
43.0031°
RAAN
55.2957°
Arg. of periapsis
246.3413°
True anomaly
113.74301°
Mean anomaly
113.7334°
Eccentric anomaly
113.7382°
Mean motion
3.75476 °/min
Orbital period
95.88 mins
BSTAR
-0.000029412
Loading maneuver chart data...
Computing Atmospheric mass density...
Loading historical data...
Loading historical data...
Loading historical data...
Loading historical data...
Loading historical data...
Loading historical data...
Loading historical data...

Documentation

Showing up to 5 results
|